12-11-2022, 00:00:04,    185,    0.0,    8.9,   0.00,   0.00, 1022.9,   83.1, -999.0
12-11-2022, 00:00:14,    185,    0.0,    8.9,   0.00,   0.00, 1022.8,   83.2, -999.0
12-11-2022, 00:00:24,    185,    0.0,    8.9,   0.00,   0.00, 1022.8,   83.2, -999.0
12-11-2022, 00:00:34,    185,    0.0,    8.9,   0.00,   0.00, 1022.9,   83.2, -999.0
12-11-2022, 00:00:44,    185,    0.0,    8.9,   0.00,   0.00, 1022.9,   83.2, -999.0
12-11-2022, 00:00:54,    185,    0.0,    8.9,   0.00,   0.00, 1022.8,   83.2, -999.0
12-11-2022, 00:01:04,    185,    0.0,    8.9,   0.00,   0.00, 1022.8,   83.3, -999.0
12-11-2022, 00:01:14,    185,    0.0,    8.9,   0.00,   0.00, 1022.8,   83.3, -999.0
12-11-2022, 00:01:24,    185,    0.0,    9.0,   0.00,   0.00, 1022.8,   83.5, -999.0
12-11-2022, 00:01:34,    185,    0.0,    9.1,   0.00,   0.00, 1022.9,   83.5, -999.0
12-11-2022, 00:01:44,    185,    0.0,    9.1,   0.00,   0.00, 1022.8,   83.3, -999.0
12-11-2022, 00:01:54,    185,    0.0,    9.0,   0.00,   0.00, 1022.8,   83.1, -999.0
12-11-2022, 00:02:04,    185,    0.0,    9.0,   0.00,   0.00, 1022.8,   83.0, -999.0
12-11-2022, 00:02:14,    185,    0.0,    9.0,   0.00,   0.00, 1022.8,   82.9, -999.0
12-11-2022, 00:02:23,    185,    0.0,    9.0,   0.00,   0.00, 1022.8,   82.9, -999.0
12-11-2022, 00:02:34,    185,    0.0,    9.0,   0.00,   0.00, 1022.9,   82.9, -999.0
12-11-2022, 00:02:44,    185,    0.0,    9.0,   0.00,   0.00, 1022.9,   83.0, -999.0
12-11-2022, 00:02:53,    185,    0.0,    9.0,   0.00,   0.00, 1022.9,   82.9, -999.0
12-11-2022, 00:03:03,    185,    0.0,    9.1,   0.00,   0.00, 1022.9,   83.0, -999.0
12-11-2022, 00:03:14,    185,    0.0,    9.1,   0.00,   0.00, 1022.9,   82.9, -999.0
12-11-2022, 00:03:23,    186,    0.0,    9.0,   0.00,   0.00, 1022.9,   82.8, -999.0
12-11-2022, 00:03:33,    185,    0.0,    9.0,   0.00,   0.00, 1022.9,   82.9, -999.0
12-11-2022, 00:03:44,    185,    0.0,    9.0,   0.00,   0.00, 1022.8,   82.8, -999.0
12-11-2022, 00:03:54,    185,    0.0,    9.1,   0.00,   0.00, 1022.8,   82.8, -999.0
12-11-2022, 00:04:03,    186,    0.0,    9.0,   0.00,   0.00, 1022.8,   82.9, -999.0
12-11-2022, 00:04:13,    185,    0.0,    9.0,   0.00,   0.00, 1022.8,   82.8, -999.0
12-11-2022, 00:04:24,    185,    0.0,    9.1,   0.00,   0.00, 1022.8,   82.9, -999.0
12-11-2022, 00:04:33,    185,    0.0,    9.1,   0.00,   0.00, 1022.9,   83.0, -999.0
12-11-2022, 00:04:43,    185,    0.0,    9.0,   0.00,   0.00, 1022.8,   83.0, -999.0
12-11-2022, 00:04:53,    186,    0.0,    9.1,   0.00,   0.00, 1022.8,   82.9, -999.0
12-11-2022, 00:05:03,    185,    0.0,    9.1,   0.00,   0.00, 1022.8,   82.9, -999.0
12-11-2022, 00:05:13,    185,    0.0,    9.1,   0.00,   0.00, 1022.8,   82.8, -999.0
12-11-2022, 00:05:23,    185,    0.0,    9.1,   0.00,   0.00, 1022.9,   82.7, -999.0
12-11-2022, 00:05:33,    185,    0.0,    9.1,   0.00,   0.00, 1022.8,   82.5, -999.0
12-11-2022, 00:05:43,    185,    0.0,    9.1,   0.00,   0.00, 1022.8,   82.5, -999.0
12-11-2022, 00:05:53,    185,    0.0,    9.1,   0.00,   0.00, 1022.8,   82.4, -999.0
12-11-2022, 00:06:03,    185,    0.0,    9.0,   0.00,   0.00, 1022.8,   82.6, -999.0
12-11-2022, 00:06:13,    185,    0.0,    9.1,   0.00,   0.00, 1022.8,   82.5, -999.0
12-11-2022, 00:06:23,    185,    0.0,    9.1,   0.00,   0.00, 1022.8,   82.5, -999.0
12-11-2022, 00:06:33,    185,    0.0,    9.1,   0.00,   0.00, 1022.8,   82.6, -999.0
12-11-2022, 00:06:43,    185,    0.0,    9.1,   0.00,   0.00, 1022.8,   82.6, -999.0
12-11-2022, 00:06:53,    185,    0.0,    9.1,   0.00,   0.00, 1022.8,   82.6, -999.0
12-11-2022, 00:07:03,    185,    0.0,    9.1,   0.00,   0.00, 1022.8,   82.5, -999.0
12-11-2022, 00:07:13,    185,    0.0,    9.1,   0.00,   0.00, 1022.8,   82.5, -999.0
12-11-2022, 00:07:23,    185,    0.0,    9.0,   0.00,   0.00, 1022.8,   82.5, -999.0
12-11-2022, 00:07:32,    185,    0.0,    9.0,   0.00,   0.00, 1022.8,   82.5, -999.0
12-11-2022, 00:07:43,    185,    0.0,    9.1,   0.00,   0.00, 1022.8,   82.7, -999.0
12-11-2022, 00:07:53,    185,    0.0,    9.1,   0.00,   0.00, 1022.8,   82.8, -999.0
12-11-2022, 00:08:02,    185,    0.0,    9.1,   0.00,   0.00, 1022.8,   82.9, -999.0
12-11-2022, 00:08:12,    185,    0.0,    9.1,   0.00,   0.00, 1022.8,   82.8, -999.0
12-11-2022, 00:08:23,    185,    0.0,    9.1,   0.00,   0.00, 1022.8,   82.7, -999.0
12-11-2022, 00:08:33,    185,    0.0,    9.1,   0.00,   0.00, 1022.8,   82.5, -999.0
12-11-2022, 00:08:42,    185,    0.0,    9.1,   0.00,   0.00, 1022.8,   82.5, -999.0
12-11-2022, 00:08:52,    185,    0.0,    9.1,   0.00,   0.00, 1022.8,   82.6, -999.0
12-11-2022, 00:09:03,    185,    0.0,    9.0,   0.00,   0.00, 1022.7,   82.5, -999.0
12-11-2022, 00:09:12,    185,    0.0,    8.9,   0.00,   0.00, 1022.8,   82.6, -999.0
12-11-2022, 00:09:22,    185,    0.0,    9.0,   0.00,   0.00, 1022.8,   82.5, -999.0
12-11-2022, 00:09:32,    185,    0.0,    9.0,   0.00,   0.00, 1022.8,   82.5, -999.0
12-11-2022, 00:09:42,    185,    0.0,    9.0,   0.00,   0.00, 1022.8,   82.6, -999.0
12-11-2022, 00:09:52,    185,    0.0,    9.0,   0.00,   0.00, 1022.8,   82.7, -999.0
12-11-2022, 00:10:02,    185,    0.0,    9.0,   0.00,   0.00, 1022.8,   82.8, -999.0
12-11-2022, 00:10:12,    185,    0.0,    9.1,   0.00,   0.00, 1022.8,   82.8, -999.0
12-11-2022, 00:10:22,    185,    0.0,    9.0,   0.00,   0.00, 1022.8,   82.9, -999.0
12-11-2022, 00:10:32,    185,    0.0,    9.0,   0.00,   0.00, 1022.8,   82.8, -999.0
12-11-2022, 00:10:42,    185,    0.0,    9.1,   0.00,   0.00, 1022.8,   82.9, -999.0
12-11-2022, 00:10:52,    185,    0.0,    9.1,   0.00,   0.00, 1022.8,   82.6, -999.0
12-11-2022, 00:11:02,    185,    0.0,    9.1,   0.00,   0.00, 1022.8,   82.7, -999.0
12-11-2022, 00:11:12,    185,    0.0,    9.0,   0.00,   0.00, 1022.8,   82.8, -999.0
12-11-2022, 00:11:22,    185,    0.0,    8.9,   0.00,   0.00, 1022.8,   82.6, -999.0
12-11-2022, 00:11:32,    185,    0.0,    9.0,   0.00,   0.00, 1022.8,   82.5, -999.0
12-11-2022, 00:11:42,    185,    0.0,    9.1,   0.00,   0.00, 1022.8,   82.5, -999.0
12-11-2022, 00:11:52,    185,    0.0,    9.0,   0.00,   0.00, 1022.8,   82.4, -999.0
12-11-2022, 00:12:02,    185,    0.0,    9.1,   0.00,   0.00, 1022.8,   82.5, -999.0
12-11-2022, 00:12:12,    185,    0.0,    9.0,   0.00,   0.00, 1022.8,   82.6, -999.0
12-11-2022, 00:12:22,    185,    0.0,    9.0,   0.00,   0.00, 1022.7,   82.6, -999.0
12-11-2022, 00:12:32,    185,    0.0,    9.1,   0.00,   0.00, 1022.7,   82.6, -999.0
12-11-2022, 00:12:42,    185,    0.0,    9.1,   0.00,   0.00, 1022.8,   82.7, -999.0
12-11-2022, 00:12:52,    185,    0.0,    9.1,   0.00,   0.00, 1022.7,   82.7, -999.0
12-11-2022, 00:13:02,    185,    0.0,    9.0,   0.00,   0.00, 1022.7,   82.7, -999.0
12-11-2022, 00:13:11,    185,    0.0,    9.0,   0.00,   0.00, 1022.7,   82.7, -999.0
12-11-2022, 00:13:22,    185,    0.0,    8.9,   0.00,   0.00, 1022.7,   82.5, -999.0
12-11-2022, 00:13:32,    185,    0.0,    9.0,   0.00,   0.00, 1022.8,   82.6, -999.0
12-11-2022, 00:13:41,    185,    0.0,    9.0,   0.00,   0.00, 1022.7,   82.6, -999.0
12-11-2022, 00:13:51,    185,    0.0,    9.0,   0.00,   0.00, 1022.7,   82.5, -999.0
12-11-2022, 00:14:02,    185,    0.0,    8.9,   0.00,   0.00, 1022.8,   82.5, -999.0
12-11-2022, 00:14:11,    185,    0.0,    9.0,   0.00,   0.00, 1022.8,   82.7, -999.0
12-11-2022, 00:14:21,    185,    0.0,    8.9,   0.00,   0.00, 1022.7,   82.8, -999.0
12-11-2022, 00:14:31,    185,    0.0,    8.9,   0.00,   0.00, 1022.8,   82.9, -999.0
12-11-2022, 00:14:41,    185,    0.0,    9.0,   0.00,   0.00, 1022.8,   83.0, -999.0
12-11-2022, 00:14:51,    184,    0.0,    8.9,   0.00,   0.00, 1022.7,   83.0, -999.0
12-11-2022, 00:15:01,    184,    0.0,    9.0,   0.00,   0.00, 1022.8,   83.1, -999.0
12-11-2022, 00:15:11,    185,    0.0,    9.1,   0.00,   0.00, 1022.8,   83.4, -999.0
12-11-2022, 00:15:21,    185,    0.0,    9.0,   0.00,   0.00, 1022.8,   83.3, -999.0
12-11-2022, 00:15:31,    185,    0.0,    9.1,   0.00,   0.00, 1022.8,   83.2, -999.0
12-11-2022, 00:15:41,    185,    0.0,    9.0,   0.00,   0.00, 1022.8,   83.1, -999.0
12-11-2022, 00:15:51,    185,    0.0,    9.1,   0.00,   0.00, 1022.8,   83.0, -999.0
12-11-2022, 00:16:01,    185,    0.0,    9.0,   0.00,   0.00, 1022.8,   82.9, -999.0
12-11-2022, 00:16:11,    185,    0.0,    9.1,   0.00,   0.00, 1022.8,   82.9, -999.0
12-11-2022, 00:16:21,    185,    0.0,    9.2,   0.00,   0.00, 1022.8,   82.9, -999.0
12-11-2022, 00:16:31,    185,    0.0,    9.2,   0.00,   0.00, 1022.8,   82.9, -999.0
12-11-2022, 00:16:41,    185,    0.0,    9.2,   0.00,   0.00, 1022.8,   82.7, -999.0
12-11-2022, 00:16:51,    185,    0.0,    9.2,   0.00,   0.00, 1022.8,   82.6, -999.0
12-11-2022, 00:17:01,    185,    0.0,    9.3,   0.00,   0.00, 1022.7,   82.4, -999.0
12-11-2022, 00:17:11,    185,    0.0,    9.3,   0.00,   0.00, 1022.8,   82.2, -999.0
12-11-2022, 00:17:21,    185,    0.0,    9.1,   0.00,   0.00, 1022.7,   82.2, -999.0
12-11-2022, 00:17:31,    185,    0.0,    9.2,   0.00,   0.00, 1022.8,   82.1, -999.0
12-11-2022, 00:17:41,    185,    0.0,    9.2,   0.00,   0.00, 1022.8,   82.1, -999.0
12-11-2022, 00:17:51,    185,    0.0,    9.2,   0.00,   0.00, 1022.8,   82.0, -999.0
12-11-2022, 00:18:01,    185,    0.0,    9.1,   0.00,   0.00, 1022.8,   82.2, -999.0
12-11-2022, 00:18:11,    184,    0.0,    9.2,   0.00,   0.00, 1022.7,   82.2, -999.0
12-11-2022, 00:18:20,    185,    0.0,    9.2,   0.00,   0.00, 1022.7,   82.2, -999.0
12-11-2022, 00:18:31,    185,    0.0,    9.2,   0.00,   0.00, 1022.8,   82.3, -999.0
12-11-2022, 00:18:41,    185,    0.0,    9.2,   0.00,   0.00, 1022.7,   82.2, -999.0
12-11-2022, 00:18:50,    185,    0.0,    9.2,   0.00,   0.00, 1022.8,   82.2, -999.0
12-11-2022, 00:19:00,    185,    0.0,    9.2,   0.00,   0.00, 1022.8,   82.2, -999.0
12-11-2022, 00:19:11,    185,    0.0,    9.2,   0.00,   0.00, 1022.8,   82.1, -999.0
12-11-2022, 00:19:20,    185,    0.0,    9.1,   0.00,   0.00, 1022.7,   82.1, -999.0
12-11-2022, 00:19:30,    185,    0.0,    9.2,   0.00,   0.00, 1022.8,   82.2, -999.0
12-11-2022, 00:19:41,    184,    0.0,    9.1,   0.00,   0.00, 1022.8,   82.2, -999.0
12-11-2022, 00:19:50,    185,    0.0,    9.1,   0.00,   0.00, 1022.8,   82.2, -999.0
12-11-2022, 00:20:00,    185,    0.0,    9.1,   0.00,   0.00, 1022.8,   82.3, -999.0
12-11-2022, 00:20:10,    185,    0.0,    9.0,   0.00,   0.00, 1022.8,   82.2, -999.0
12-11-2022, 00:20:20,    184,    0.0,    9.1,   0.00,   0.00, 1022.8,   82.4, -999.0
12-11-2022, 00:20:30,    185,    0.0,    9.2,   0.00,   0.00, 1022.8,   82.5, -999.0
12-11-2022, 00:20:40,    185,    0.0,    9.2,   0.00,   0.00, 1022.8,   82.4, -999.0
12-11-2022, 00:20:50,    185,    0.0,    9.1,   0.00,   0.00, 1022.8,   82.3, -999.0
12-11-2022, 00:21:00,    185,    0.0,    9.2,   0.00,   0.00, 1022.8,   82.2, -999.0
12-11-2022, 00:21:10,    183,    0.0,    9.1,   0.00,   0.00, 1022.8,   82.3, -999.0
12-11-2022, 00:21:20,    185,    0.0,    9.1,   0.00,   0.00, 1022.8,   82.3, -999.0
12-11-2022, 00:21:30,    185,    0.0,    9.1,   0.00,   0.00, 1022.8,   82.3, -999.0
12-11-2022, 00:21:40,    185,    0.0,    9.1,   0.00,   0.00, 1022.7,   82.3, -999.0
12-11-2022, 00:21:50,    185,    0.0,    9.1,   0.00,   0.00, 1022.7,   82.4, -999.0
12-11-2022, 00:22:00,    185,    0.0,    9.0,   0.00,   0.00, 1022.8,   82.4, -999.0
12-11-2022, 00:22:10,    185,    0.0,    9.0,   0.00,   0.00, 1022.7,   82.4, -999.0
12-11-2022, 00:22:20,    185,    0.0,    9.0,   0.00,   0.00, 1022.7,   82.6, -999.0
12-11-2022, 00:22:30,    185,    0.0,    9.1,   0.00,   0.00, 1022.7,   82.7, -999.0
12-11-2022, 00:22:40,    185,    0.0,    9.0,   0.00,   0.00, 1022.7,   82.6, -999.0
12-11-2022, 00:22:49,    184,    0.0,    8.9,   0.00,   0.00, 1022.8,   82.7, -999.0
12-11-2022, 00:23:00,    185,    0.0,    9.0,   0.00,   0.00, 1022.8,   82.7, -999.0
12-11-2022, 00:23:10,    185,    0.0,    9.0,   0.00,   0.00, 1022.7,   82.7, -999.0
12-11-2022, 00:23:21,    185,    0.0,    9.0,   0.00,   0.00, 1022.7,   82.7, -999.0
12-11-2022, 00:23:30,    185,    0.0,    9.0,   0.00,   0.00, 1022.7,   82.7, -999.0
12-11-2022, 00:23:40,    185,    0.0,    9.0,   0.00,   0.00, 1022.7,   82.8, -999.0
12-11-2022, 00:23:49,    185,    0.0,    9.0,   0.00,   0.00, 1022.7,   82.8, -999.0
12-11-2022, 00:23:59,    184,    0.0,    9.0,   0.00,   0.00, 1022.7,   82.8, -999.0
12-11-2022, 00:24:10,    185,    0.0,    8.9,   0.00,   0.00, 1022.7,   82.8, -999.0
12-11-2022, 00:24:19,    185,    0.0,    9.0,   0.00,   0.00, 1022.7,   82.8, -999.0
12-11-2022, 00:24:29,    185,    0.0,    9.1,   0.00,   0.00, 1022.7,   82.9, -999.0
12-11-2022, 00:24:39,    185,    0.0,    9.0,   0.00,   0.00, 1022.7,   82.8, -999.0
12-11-2022, 00:24:50,    185,    0.0,    9.0,   0.00,   0.00, 1022.7,   82.8, -999.0
12-11-2022, 00:24:59,    185,    0.0,    9.0,   0.00,   0.00, 1022.7,   82.8, -999.0
12-11-2022, 00:25:09,    185,    0.0,    9.0,   0.00,   0.00, 1022.7,   82.9, -999.0
12-11-2022, 00:25:19,    185,    0.0,    9.0,   0.00,   0.00, 1022.7,   82.8, -999.0
12-11-2022, 00:25:29,    185,    0.0,    9.1,   0.00,   0.00, 1022.8,   83.0, -999.0
12-11-2022, 00:25:39,    185,    0.0,    9.1,   0.00,   0.00, 1022.7,   83.0, -999.0
12-11-2022, 00:25:49,    185,    0.0,    9.1,   0.00,   0.00, 1022.8,   83.0, -999.0
12-11-2022, 00:25:59,    185,    0.0,    9.2,   0.00,   0.00, 1022.8,   83.1, -999.0
12-11-2022, 00:26:09,    185,    0.0,    9.2,   0.00,   0.00, 1022.8,   82.9, -999.0
12-11-2022, 00:26:19,    185,    0.0,    9.2,   0.00,   0.00, 1022.8,   82.8, -999.0
12-11-2022, 00:26:29,    185,    0.0,    9.1,   0.00,   0.00, 1022.7,   82.8, -999.0
12-11-2022, 00:26:39,    185,    0.0,    9.2,   0.00,   0.00, 1022.8,   82.6, -999.0
12-11-2022, 00:26:49,    185,    0.0,    9.2,   0.00,   0.00, 1022.7,   82.5, -999.0
12-11-2022, 00:26:59,    185,    0.0,    9.1,   0.00,   0.00, 1022.7,   82.3, -999.0
12-11-2022, 00:27:09,    185,    0.0,    9.1,   0.00,   0.00, 1022.7,   82.3, -999.0
12-11-2022, 00:27:19,    185,    0.0,    9.1,   0.00,   0.00, 1022.7,   82.3, -999.0
12-11-2022, 00:27:29,    185,    0.0,    9.1,   0.00,   0.00, 1022.7,   82.3, -999.0
12-11-2022, 00:27:39,    185,    0.0,    9.1,   0.00,   0.00, 1022.7,   82.3, -999.0
12-11-2022, 00:27:49,    185,    0.0,    9.0,   0.00,   0.00, 1022.7,   82.3, -999.0
12-11-2022, 00:27:58,    185,    0.0,    9.1,   0.00,   0.00, 1022.8,   82.4, -999.0
12-11-2022, 00:28:09,    179,    0.6,    9.1,   0.00,   0.00, 1022.9,   82.8, -999.0
12-11-2022, 00:28:19,    179,    0.3,    9.2,   0.00,   0.00, 1022.9,   83.1, -999.0
12-11-2022, 00:28:28,    179,    0.0,    9.2,   0.00,   0.00, 1022.8,   83.0, -999.0
12-11-2022, 00:28:39,    178,    0.0,    9.1,   0.00,   0.00, 1022.8,   82.9, -999.0
12-11-2022, 00:28:49,    179,    0.0,    9.2,   0.00,   0.00, 1022.7,   82.8, -999.0
12-11-2022, 00:28:58,    177,    0.0,    9.1,   0.00,   0.00, 1022.8,   82.5, -999.0
12-11-2022, 00:29:08,    179,    0.0,    9.1,   0.00,   0.00, 1022.8,   82.4, -999.0
12-11-2022, 00:29:19,    179,    0.0,    9.1,   0.00,   0.00, 1022.8,   82.4, -999.0
12-11-2022, 00:29:28,    179,    0.0,    9.1,   0.00,   0.00, 1022.8,   82.4, -999.0
12-11-2022, 00:29:38,    179,    0.0,    9.1,   0.00,   0.00, 1022.8,   82.4, -999.0
12-11-2022, 00:29:48,    179,    0.0,    9.2,   0.00,   0.00, 1022.8,   82.5, -999.0
12-11-2022, 00:29:58,    179,    0.0,    9.2,   0.00,   0.00, 1022.7,   82.5, -999.0
12-11-2022, 00:30:08,    179,    0.0,    9.2,   0.00,   0.00, 1022.8,   82.5, -999.0
12-11-2022, 00:30:18,    179,    0.0,    9.2,   0.00,   0.00, 1022.7,   82.4, -999.0
12-11-2022, 00:30:28,    178,    0.0,    9.3,   0.00,   0.00, 1022.7,   82.5, -999.0
12-11-2022, 00:30:38,    179,    0.0,    9.3,   0.00,   0.00, 1022.7,   82.5, -999.0
12-11-2022, 00:30:48,    178,    0.0,    9.4,   0.00,   0.00, 1022.8,   82.5, -999.0
12-11-2022, 00:30:58,    179,    0.0,    9.4,   0.00,   0.00, 1022.8,   82.3, -999.0
12-11-2022, 00:31:08,    179,    0.0,    9.4,   0.00,   0.00, 1022.8,   82.5, -999.0
12-11-2022, 00:31:18,    178,    0.0,    9.4,   0.00,   0.00, 1022.7,   82.1, -999.0
12-11-2022, 00:31:28,    179,    0.0,    9.4,   0.00,   0.00, 1022.7,   82.0, -999.0
12-11-2022, 00:31:38,    178,    0.0,    9.4,   0.00,   0.00, 1022.8,   81.7, -999.0
12-11-2022, 00:31:48,    178,    0.0,    9.4,   0.00,   0.00, 1022.8,   81.6, -999.0
12-11-2022, 00:31:58,    178,    0.0,    9.3,   0.00,   0.00, 1022.8,   81.4, -999.0
12-11-2022, 00:32:08,    178,    0.0,    9.3,   0.00,   0.00, 1022.7,   81.5, -999.0
12-11-2022, 00:32:18,    178,    0.0,    9.3,   0.00,   0.00, 1022.8,   81.6, -999.0
12-11-2022, 00:32:28,    178,    0.0,    9.4,   0.00,   0.00, 1022.8,   81.6, -999.0
12-11-2022, 00:32:38,    178,    0.0,    9.4,   0.00,   0.00, 1022.8,   81.6, -999.0
12-11-2022, 00:32:48,    178,    0.0,    9.4,   0.00,   0.00, 1022.8,   81.6, -999.0
12-11-2022, 00:32:58,    178,    0.0,    9.3,   0.00,   0.00, 1022.8,   81.4, -999.0
12-11-2022, 00:33:08,    179,    0.0,    9.3,   0.00,   0.00, 1022.8,   81.4, -999.0
12-11-2022, 00:33:18,    178,    0.0,    9.1,   0.00,   0.00, 1022.7,   81.4, -999.0
12-11-2022, 00:33:28,    178,    0.0,    9.3,   0.00,   0.00, 1022.8,   81.5, -999.0
12-11-2022, 00:33:37,    178,    0.0,    9.2,   0.00,   0.00, 1022.7,   81.5, -999.0
12-11-2022, 00:33:48,    179,    0.0,    9.2,   0.00,   0.00, 1022.7,   81.4, -999.0
12-11-2022, 00:33:58,    178,    0.0,    9.3,   0.00,   0.00, 1022.8,   81.5, -999.0
12-11-2022, 00:34:07,    178,    0.0,    9.3,   0.00,   0.00, 1022.7,   81.5, -999.0
12-11-2022, 00:34:17,    178,    0.0,    9.3,   0.00,   0.00, 1022.8,   81.6, -999.0
12-11-2022, 00:34:28,    179,    0.0,    9.2,   0.00,   0.00, 1022.8,   81.7, -999.0
12-11-2022, 00:34:37,    178,    0.0,    9.3,   0.00,   0.00, 1022.7,   81.8, -999.0
12-11-2022, 00:34:49,    178,    0.0,    9.3,   0.00,   0.00, 1022.7,   81.9, -999.0
12-11-2022, 00:34:57,    178,    0.0,    9.3,   0.00,   0.00, 1022.8,   81.9, -999.0
12-11-2022, 00:35:07,    178,    0.0,    9.2,   0.00,   0.00, 1022.8,   82.0, -999.0
12-11-2022, 00:35:17,    178,    0.0,    9.3,   0.00,   0.00, 1022.8,   81.9, -999.0
12-11-2022, 00:35:27,    178,    0.0,    9.2,   0.00,   0.00, 1022.7,   81.8, -999.0
12-11-2022, 00:35:37,    179,    0.0,    9.2,   0.00,   0.00, 1022.7,   81.8, -999.0
12-11-2022, 00:35:47,    178,    0.0,    9.3,   0.00,   0.00, 1022.7,   81.8, -999.0
12-11-2022, 00:35:57,    178,    0.0,    9.3,   0.00,   0.00, 1022.7,   81.7, -999.0
12-11-2022, 00:36:07,    179,    0.0,    9.3,   0.00,   0.00, 1022.7,   81.6, -999.0
12-11-2022, 00:36:17,    178,    0.0,    9.3,   0.00,   0.00, 1022.8,   81.6, -999.0
12-11-2022, 00:36:27,    178,    0.0,    9.2,   0.00,   0.00, 1022.8,   81.6, -999.0
12-11-2022, 00:36:37,    178,    0.0,    9.2,   0.00,   0.00, 1022.8,   81.7, -999.0
12-11-2022, 00:36:47,    178,    0.0,    9.2,   0.00,   0.00, 1022.8,   81.7, -999.0
12-11-2022, 00:36:57,    178,    0.0,    9.1,   0.00,   0.00, 1022.8,   81.7, -999.0
12-11-2022, 00:37:07,    178,    0.0,    9.1,   0.00,   0.00, 1022.8,   81.8, -999.0
12-11-2022, 00:37:17,    176,    0.0,    9.1,   0.00,   0.00, 1022.8,   81.9, -999.0
12-11-2022, 00:37:27,    178,    0.0,    9.1,   0.00,   0.00, 1022.8,   81.9, -999.0
12-11-2022, 00:37:37,    179,    0.0,    9.1,   0.00,   0.00, 1022.9,   82.0, -999.0
12-11-2022, 00:37:47,    178,    0.0,    9.1,   0.00,   0.00, 1022.9,   82.2, -999.0
12-11-2022, 00:37:57,    179,    0.0,    9.0,   0.00,   0.00, 1022.8,   82.3, -999.0
12-11-2022, 00:38:07,    179,    0.0,    9.1,   0.00,   0.00, 1022.8,   82.3, -999.0
12-11-2022, 00:38:17,    178,    0.0,    9.1,   0.00,   0.00, 1022.8,   82.2, -999.0
12-11-2022, 00:38:27,    178,    0.0,    9.1,   0.00,   0.00, 1022.8,   82.4, -999.0
12-11-2022, 00:38:37,    178,    0.0,    9.0,   0.00,   0.00, 1022.8,   82.4, -999.0
12-11-2022, 00:38:46,    178,    0.0,    9.0,   0.00,   0.00, 1022.8,   82.3, -999.0
12-11-2022, 00:38:57,    178,    0.0,    9.1,   0.00,   0.00, 1022.8,   82.4, -999.0
12-11-2022, 00:39:07,    178,    0.0,    9.0,   0.00,   0.00, 1022.8,   82.5, -999.0
12-11-2022, 00:39:16,    178,    0.0,    9.0,   0.00,   0.00, 1022.8,   82.4, -999.0
12-11-2022, 00:39:26,    178,    0.0,    9.0,   0.00,   0.00, 1022.8,   82.4, -999.0
12-11-2022, 00:39:37,    178,    0.0,    9.0,   0.00,   0.00, 1022.8,   82.6, -999.0
12-11-2022, 00:39:46,    178,    0.0,    9.0,   0.00,   0.00, 1022.9,   82.6, -999.0
12-11-2022, 00:39:56,    178,    0.0,    9.1,   0.00,   0.00, 1022.8,   82.7, -999.0
12-11-2022, 00:40:06,    178,    0.0,    9.0,   0.00,   0.00, 1022.9,   82.6, -999.0
12-11-2022, 00:40:16,    176,    0.0,    9.0,   0.00,   0.00, 1022.9,   82.6, -999.0
12-11-2022, 00:40:26,    178,    0.0,    9.0,   0.00,   0.00, 1022.9,   82.6, -999.0
12-11-2022, 00:40:36,    178,    0.0,    9.0,   0.00,   0.00, 1022.9,   82.7, -999.0
12-11-2022, 00:40:46,    178,    0.0,    8.9,   0.00,   0.00, 1022.9,   82.7, -999.0
12-11-2022, 00:40:56,    178,    0.0,    9.0,   0.00,   0.00, 1022.9,   82.6, -999.0
12-11-2022, 00:41:06,    178,    0.0,    9.0,   0.00,   0.00, 1022.9,   82.6, -999.0
12-11-2022, 00:41:16,    178,    0.0,    9.0,   0.00,   0.00, 1022.8,   82.7, -999.0
12-11-2022, 00:41:26,    178,    0.0,    8.9,   0.00,   0.00, 1022.9,   82.7, -999.0
12-11-2022, 00:41:36,    178,    0.0,    8.9,   0.00,   0.00, 1022.8,   82.8, -999.0
12-11-2022, 00:41:46,    178,    0.0,    9.0,   0.00,   0.00, 1022.8,   82.9, -999.0
12-11-2022, 00:41:56,    178,    0.0,    8.9,   0.00,   0.00, 1022.9,   83.0, -999.0
12-11-2022, 00:42:06,    178,    0.0,    9.0,   0.00,   0.00, 1022.9,   83.0, -999.0
12-11-2022, 00:42:16,    178,    0.0,    9.0,   0.00,   0.00, 1022.9,   83.1, -999.0
12-11-2022, 00:42:26,    178,    0.0,    9.0,   0.00,   0.00, 1022.9,   83.2, -999.0
12-11-2022, 00:42:36,    179,    0.0,    9.1,   0.00,   0.00, 1022.9,   83.2, -999.0
12-11-2022, 00:42:46,    178,    0.0,    9.1,   0.00,   0.00, 1022.9,   83.2, -999.0
12-11-2022, 00:42:56,    178,    0.0,    9.1,   0.00,   0.00, 1022.9,   83.2, -999.0
12-11-2022, 00:43:06,    178,    0.0,    9.2,   0.00,   0.00, 1022.8,   83.2, -999.0
12-11-2022, 00:43:16,    178,    0.0,    9.2,   0.00,   0.00, 1022.8,   83.0, -999.0
12-11-2022, 00:43:26,    178,    0.0,    9.3,   0.00,   0.00, 1022.8,   82.8, -999.0
12-11-2022, 00:43:36,    178,    0.0,    9.3,   0.00,   0.00, 1022.8,   82.9, -999.0
12-11-2022, 00:43:46,    178,    0.0,    9.3,   0.00,   0.00, 1022.9,   82.6, -999.0
12-11-2022, 00:43:55,    178,    0.0,    9.3,   0.00,   0.00, 1022.8,   82.5, -999.0
12-11-2022, 00:44:06,    179,    0.0,    9.4,   0.00,   0.00, 1022.8,   82.4, -999.0
12-11-2022, 00:44:16,    178,    0.0,    9.5,   0.00,   0.00, 1022.8,   82.3, -999.0
12-11-2022, 00:44:25,    179,    0.2,    9.4,   0.00,   0.00, 1022.9,   82.3, -999.0
12-11-2022, 00:44:35,    178,    0.1,    9.5,   0.00,   0.00, 1022.9,   82.1, -999.0
12-11-2022, 00:44:46,    144,    0.0,    9.5,   0.00,   0.00, 1022.9,   81.9, -999.0
12-11-2022, 00:44:55,    147,    0.0,    9.4,   0.00,   0.00, 1022.9,   81.6, -999.0
12-11-2022, 00:45:05,    147,    0.0,    9.4,   0.00,   0.00, 1022.8,   81.6, -999.0
12-11-2022, 00:45:15,    147,    0.0,    9.4,   0.00,   0.00, 1022.8,   81.5, -999.0
12-11-2022, 00:45:25,    147,    0.0,    9.5,   0.00,   0.00, 1022.8,   81.4, -999.0
12-11-2022, 00:45:35,    146,    0.0,    9.3,   0.00,   0.00, 1022.8,   81.4, -999.0
12-11-2022, 00:45:45,    146,    0.0,    9.3,   0.00,   0.00, 1022.8,   81.3, -999.0
12-11-2022, 00:45:55,    146,    0.0,    9.4,   0.00,   0.00, 1022.8,   81.4, -999.0
12-11-2022, 00:46:05,    146,    0.0,    9.3,   0.00,   0.00, 1022.8,   81.4, -999.0
12-11-2022, 00:46:15,    146,    0.0,    9.3,   0.00,   0.00, 1022.8,   81.5, -999.0
12-11-2022, 00:46:25,    146,    0.0,    9.2,   0.00,   0.00, 1022.8,   81.4, -999.0
12-11-2022, 00:46:35,    146,    0.0,    9.3,   0.00,   0.00, 1022.8,   81.5, -999.0
12-11-2022, 00:46:45,    146,    0.0,    9.3,   0.00,   0.00, 1022.8,   81.5, -999.0